When you browse on this site, cookies collect data to enhance your experience and personalize the content and advertising you see.
Visit our Privacy Policy to learn more. By continuing to use the site, you agree to this use of cookies and data.
  • In United Kingdom
  • List of Countries
  • For 7 days
  • Water Temperature
  • Satellite Maps
  • Weather Map
  • Weather Widgets
  • user-avatar
    Login

    Hourly Weather Liege

    Today, 21 July, Sunday

    Time Temperature Precipitation Wind Pressure Humidity
    00:00 +16°C° 0 mm 3 mps 753 mmHg 89%
    01:00 +14°C° 0 mm 3 mps 753 mmHg 91%
    02:00 +14°C° 0 mm 3 mps 753 mmHg 93%
    03:00 +14°C° 0 mm 3 mps 753 mmHg 94%
    04:00 +14°C° 0 mm 3 mps 754 mmHg 93%
    05:00 +16°C° 0 mm 3 mps 754 mmHg 91%
    06:00 +15°C° 0 mm 4 mps 754 mmHg 90%
    07:00 +18°C° 0 mm 4 mps 755 mmHg 83%
    08:00 +20°C° 0 mm 4 mps 756 mmHg 77%
    09:00 +22°C° 0 mm 4 mps 756 mmHg 70%
    10:00 +22°C° 0 mm 4 mps 756 mmHg 65%
    11:00 +23°C° 0 mm 4 mps 756 mmHg 60%
    12:00 +25°C° 0 mm 5 mps 757 mmHg 55%
    13:00 +25°C° 0 mm 4 mps 757 mmHg 54%
    14:00 +25°C° 0 mm 4 mps 757 mmHg 53%
    15:00 +25°C° 0 mm 4 mps 757 mmHg 51%
    16:00 +25°C° 0 mm 3 mps 757 mmHg 55%
    17:00 +24°C° 0 mm 3 mps 757 mmHg 59%
    18:00 +23°C° 0 mm 2 mps 757 mmHg 63%
    19:00 +20°C° 0 mm 2 mps 757 mmHg 68%
    20:00 +19°C° 0 mm 2 mps 758 mmHg 73%
    21:00 +18°C° 0 mm 1 mps 758 mmHg 78%
    22:00 +18°C° 0 mm 1 mps 758 mmHg 80%
    23:00 +16°C° 0 mm 1 mps 758 mmHg 82%

    Tomorrow, 22 July, Monday

    Time Temperature Precipitation Wind Pressure Humidity
    00:00 +16°C° 0 mm 1 mps 758 mmHg 84%
    01:00 +16°C° 0 mm 1 mps 758 mmHg 85%
    02:00 +15°C° 0 mm 1 mps 758 mmHg 85%
    03:00 +15°C° 0 mm 2 mps 758 mmHg 85%
    04:00 +16°C° 0 mm 2 mps 758 mmHg 83%
    05:00 +17°C° 0 mm 2 mps 758 mmHg 80%
    06:00 +18°C° 0 mm 2 mps 758 mmHg 77%
    07:00 +20°C° 0 mm 2 mps 759 mmHg 71%
    08:00 +23°C° 0 mm 2 mps 759 mmHg 65%
    09:00 +24°C° 0 mm 2 mps 759 mmHg 60%
    10:00 +25°C° 0 mm 2 mps 759 mmHg 56%
    11:00 +26°C° 0 mm 2 mps 759 mmHg 53%
    12:00 +27°C° 0 mm 2 mps 759 mmHg 50%
    13:00 +28°C° 0 mm 2 mps 758 mmHg 48%
    14:00 +28°C° 0 mm 2 mps 758 mmHg 47%
    15:00 +29°C° 0 mm 2 mps 758 mmHg 45%
    16:00 +28°C° 0 mm 2 mps 758 mmHg 50%
    17:00 +27°C° 0 mm 1 mps 758 mmHg 55%
    18:00 +27°C° 0 mm 1 mps 758 mmHg 59%
    19:00 +25°C° 0 mm 1 mps 758 mmHg 63%
    20:00 +23°C° 0 mm 1 mps 758 mmHg 67%
    21:00 +19°C° 0 mm 0 mps 758 mmHg 72%
    22:00 +18°C° 0 mm 0 mps 758 mmHg 74%
    23:00 +20°C° 0 mm 1 mps 758 mmHg 76%

    Day after tomorrow, 23 July, Tuesday

    Time Temperature Precipitation Wind Pressure Humidity
    00:00 +19°C° 0 mm 1 mps 758 mmHg 78%
    01:00 +19°C° 0 mm 1 mps 758 mmHg 79%
    02:00 +19°C° 0 mm 1 mps 758 mmHg 79%
    03:00 +18°C° 0 mm 1 mps 757 mmHg 80%
    04:00 +20°C° 0 mm 1 mps 757 mmHg 76%
    05:00 +21°C° 0 mm 1 mps 757 mmHg 73%
    06:00 +22°C° 0 mm 1 mps 757 mmHg 70%
    07:00 +24°C° 0 mm 1 mps 757 mmHg 63%
    08:00 +26°C° 0 mm 2 mps 757 mmHg 56%
    09:00 +29°C° 0 mm 2 mps 757 mmHg 49%
    10:00 +30°C° 0 mm 2 mps 756 mmHg 46%
    11:00 +31°C° 0 mm 3 mps 756 mmHg 43%
    12:00 +33°C° 0 mm 3 mps 755 mmHg 39%
    13:00 +33°C° 0 mm 3 mps 755 mmHg 39%
    14:00 +34°C° 0 mm 2 mps 755 mmHg 38%
    15:00 +34°C° 0 mm 2 mps 754 mmHg 38%
    16:00 +32°C° 0 mm 2 mps 754 mmHg 43%
    17:00 +31°C° 0 mm 2 mps 754 mmHg 49%
    18:00 +30°C° 0 mm 2 mps 753 mmHg 55%
    19:00 +28°C° 0 mm 2 mps 753 mmHg 57%
    20:00 +26°C° 0 mm 2 mps 754 mmHg 59%
    21:00 +24°C° 0 mm 2 mps 754 mmHg 62%
    22:00 +24°C° 0 mm 2 mps 753 mmHg 62%
    23:00 +23°C° 0 mm 2 mps 753 mmHg 62%

    24 July, Wednesday

    Time Temperature Precipitation Wind Pressure Humidity
    00:00 +23°C° 0 mm 2 mps 753 mmHg 63%
    01:00 +23°C° 0 mm 2 mps 753 mmHg 65%
    02:00 +21°C° 0 mm 2 mps 752 mmHg 67%
    03:00 +21°C° 0 mm 2 mps 752 mmHg 69%
    04:00 +23°C° 0 mm 2 mps 752 mmHg 69%
    05:00 +24°C° 0 mm 2 mps 752 mmHg 69%
    06:00 +24°C° 0 mm 2 mps 752 mmHg 69%
    07:00 +27°C° 0 mm 2 mps 752 mmHg 64%
    08:00 +29°C° 0 mm 2 mps 752 mmHg 59%
    09:00 +31°C° 0 mm 2 mps 752 mmHg 54%
    10:00 +32°C° 0 mm 2 mps 752 mmHg 49%
    11:00 +35°C° 0 mm 2 mps 752 mmHg 44%
    12:00 +36°C° 0 mm 2 mps 751 mmHg 39%
    13:00 +37°C° 0 mm 2 mps 751 mmHg 37%
    14:00 +37°C° 0 mm 2 mps 751 mmHg 36%
    15:00 +38°C° 0 mm 2 mps 751 mmHg 34%
    16:00 +37°C° 0 mm 2 mps 751 mmHg 40%
    17:00 +36°C° 0 mm 2 mps 751 mmHg 45%
    18:00 +34°C° 0 mm 1 mps 751 mmHg 51%
    19:00 +32°C° 0 mm 1 mps 751 mmHg 54%
    20:00 +30°C° 0 mm 1 mps 752 mmHg 57%
    21:00 +28°C° 0 mm 1 mps 752 mmHg 61%
    22:00 +27°C° 0 mm 1 mps 752 mmHg 62%
    23:00 +26°C° 0 mm 1 mps 752 mmHg 64%

    25 July, Thursday

    Time Temperature Precipitation Wind Pressure Humidity
    00:00 +25°C° 0 mm 1 mps 752 mmHg 65%
    01:00 +25°C° 0 mm 1 mps 752 mmHg 65%
    02:00 +25°C° 0 mm 1 mps 752 mmHg 65%
    03:00 +25°C° 0 mm 1 mps 751 mmHg 65%
    04:00 +26°C° 0 mm 2 mps 751 mmHg 65%
    05:00 +27°C° 0 mm 2 mps 752 mmHg 65%
    06:00 +28°C° 0 mm 2 mps 752 mmHg 65%
    07:00 +30°C° 0 mm 2 mps 752 mmHg 58%
    08:00 +32°C° 0 mm 2 mps 752 mmHg 52%
    09:00 +36°C° 0 mm 3 mps 752 mmHg 45%
    10:00 +37°C° 0 mm 3 mps 751 mmHg 41%
    11:00 +38°C° 0 mm 3 mps 751 mmHg 36%
    12:00 +39°C° 0 mm 3 mps 751 mmHg 32%
    13:00 +39°C° 0 mm 3 mps 750 mmHg 31%
    14:00 +39°C° 0 mm 3 mps 750 mmHg 31%
    15:00 +40°C° 0 mm 3 mps 749 mmHg 30%
    16:00 +38°C° 0 mm 3 mps 749 mmHg 36%
    17:00 +36°C° 0 mm 3 mps 749 mmHg 42%
    18:00 +34°C° 0 mm 3 mps 749 mmHg 48%
    19:00 +33°C° 0 mm 4 mps 748 mmHg 49%
    20:00 +32°C° 0 mm 4 mps 748 mmHg 49%
    21:00 +29°C° 0 mm 5 mps 748 mmHg 50%
    22:00 +29°C° 0 mm 4 mps 748 mmHg 49%
    23:00 +29°C° 0 mm 4 mps 747 mmHg 48%

    26 July, Friday

    Time Temperature Precipitation Wind Pressure Humidity
    00:00 +29°C° 0 mm 4 mps 747 mmHg 48%
    01:00 +28°C° 0 mm 4 mps 747 mmHg 51%
    02:00 +27°C° 0 mm 4 mps 746 mmHg 55%
    03:00 +27°C° 0 mm 4 mps 746 mmHg 58%
    04:00 +26°C° 0 mm 4 mps 747 mmHg 62%
    05:00 +26°C° 0 mm 5 mps 747 mmHg 65%
    06:00 +26°C° 0 mm 5 mps 748 mmHg 68%
    07:00 +27°C° 0 mm 5 mps 748 mmHg 64%
    08:00 +27°C° 0 mm 4 mps 749 mmHg 59%
    09:00 +28°C° 0 mm 3 mps 749 mmHg 55%
    10:00 +28°C° 0.1 mm 4 mps 750 mmHg 55%
    11:00 +28°C° 0.1 mm 5 mps 750 mmHg 56%
    12:00 +29°C° 0.1 mm 5 mps 750 mmHg 57%
    13:00 +27°C° 0.3 mm 5 mps 750 mmHg 66%
    14:00 +25°C° 0.3 mm 4 mps 750 mmHg 76%
    15:00 +22°C° 0.3 mm 4 mps 751 mmHg 85%
    16:00 +22°C° 0.3 mm 4 mps 751 mmHg 83%
    17:00 +22°C° 0.3 mm 4 mps 751 mmHg 81%
    18:00 +22°C° 0.3 mm 3 mps 752 mmHg 80%
    19:00 +21°C° 0 mm 3 mps 752 mmHg 78%
    20:00 +19°C° 0 mm 2 mps 752 mmHg 76%
    21:00 +18°C° 0 mm 2 mps 752 mmHg 75%
    22:00 +17°C° 0 mm 2 mps 752 mmHg 75%
    23:00 +16°C° 0 mm 1 mps 752 mmHg 76%
    Show more